Dewpoint
-3 -4 -5 -6 -8 -9 -8 -2 -2 -2 -3 -4 -5 -4 -5 -4 -4 -4 -1 -4 -7 -8 -7 -2 0 0 -0 -1 -1 -0 0 -1 -1 -3 -3 -5 -2 -3 -0 -1 -0 0 0 -1 -1
-4 -5 -6 -7 -9 -10 -4 -3 -3 -3 -3 -3 -5 -6 -6 -4 -4 -3 -5 -6 -6 -7 -4 -3 -4 -3 -2 -2 -1 -0 2 -0 -4 -6 -4 -5 -5 -4 -1 0 -0 -0 -0 -0 -1
-5 -5 -7 -8 -10 -8 -2 -3 -3 -3 -3 -3 -4 -5 -6 -5 -3 -2 -5 -5 -6 -6 -7 -5 -5 -5 -5 -5 -3 -3 1 -2 -6 -6 -3 -3 -4 -5 -3 0 -1 -2 -1 -1 -1
-6 -7 -9 -10 -11 -5 -2 -3 -3 -4 -4 -4 -4 -4 -5 -6 -0 -4 -5 -5 -6 -7 -7 -5 -6 -6 -3 -2 -6 -2 -5 -7 -7 -6 -4 -4 -5 -5 -5 -4 -2 -2 -4 -1 -1
-8 -9 -11 -12 -8 -2 -3 -3 -4 -4 -4 -4 -5 -5 -5 -2 -2 -5 -5 -6 -6 -6 -5 -6 -7 -7 -3 -6 -7 -4 -4 -5 -6 -6 -5 -4 -4 -4 -4 -5 -5 -5 -4 -2 -1
-13 -14 -13 -10 -3 -2 -3 -4 -4 -4 -5 -5 -5 -6 -5 -2 -4 -5 -5 -5 -5 -6 -6 -5 -5 -5 -5 -6 -5 -6 -4 -4 -6 -6 -7 -5 -5 -5 -5 -6 -6 -5 -5 -4 -1
-13 -12 -10 -5 -2 -2 -3 -4 -4 -5 -5 -5 -6 -6 -6 -4 -4 -4 -5 -5 -6 -6 -5 -4 -6 -5 -5 -4 -4 -4 -4 -5 -6 -8 -6 -5 -4 -4 -8 -7 -6 -6 -6 -5 -3
-11 -9 -7 -3 -2 -3 -3 -4 -4 -5 -5 -5 -6 -6 -3 -4 -4 -5 -5 -4 -5 -6 -7 -7 -7 -4 -4 -5 -6 -5 -4 -3 -5 -6 -4 -5 -2 -6 -9 -8 -7 -8 -8 -7 -7
-10 -8 -6 -3 -3 -3 -4 -4 -4 -5 -5 -5 -6 -4 -4 -5 -6 -6 -5 -4 -4 -6 -6 -7 -5 -4 -4 -3 -3 -5 -4 -5 -5 -5 -4 -3 -2 -5 -7 -8 -8 -8 -9 -8 -9
-10 -8 -5 -4 -3 -4 -5 -5 -4 -5 -4 -5 -5 -5 -5 -6 -5 -6 -6 -5 -5 -5 -4 -4 -4 -3 -3 -3 -1 -4 -5 -6 -5 -6 -4 -3 -3 -6 -8 -8 -8 -8 -8 -8 -9
-8 -7 -6 -5 -4 -4 -4 -4 -3 -3 -1 -5 -5 -7 -7 -6 -7 -6 -5 -5 -5 -5 -4 -5 -3 -4 -6 -5 -6 -6 -6 -5 -6 -6 -5 -4 -6 -7 -7 -7 -6 -7 -7 -6 -6
-5 -5 -4 -4 -4 -4 -4 -3 -2 -2 -3 -4 -5 -5 -5 -5 -6 -6 -6 -6 -6 -4 -6 -4 -3 -6 -8 -8 -6 -5 -5 -4 -5 -7 -6 -5 -5 -6 -6 -7 -7 -7 -7 -6 -6
-4 -3 -4 -4 -3 -4 -4 -0 -2 -5 -3 -6 -4 -4 -4 -5 -6 -7 -6 -7 -6 -5 -7 -6 -6 -7 -7 -6 -6 -6 -5 -5 -5 -6 -5 -4 -2 -5 -7 -8 -8 -7 -7 -6 -6
-3 -3 -3 -3 -3 -0 1 -3 -6 -5 -2 -4 -5 -5 -5 -5 -5 -6 -7 -6 -7 -6 -6 -6 -6 -6 -6 -5 -6 -3 -5 -5 -4 -2 -1 -5 0 -5 -7 -6 -6 -7 -7 -6 -6
-4 -4 -3 -3 2 0 0 -3 -5 -3 -1 -5 -5 -5 -4 -5 -5 -5 -6 -6 -6 -6 -6 -5 -6 -5 -4 -4 -6 -5 -4 -4 -3 -2 -2 -3 -2 -4 -8 -7 -7 -6 -7 -6 -6
-4 -3 -3 -3 -3 1 -1 -2 -4 -1 -1 -3 -5 -4 -5 -5 -5 -4 -5 -6 -5 -5 -5 -5 -6 -5 -5 -6 -6 -6 -5 -3 -3 -2 1 -2 -3 -3 -6 -8 -7 -8 -7 -6 -6
-4 -3 -3 -1 1 -0 -3 -3 -0 -1 -7 -2 -2 -4 -4 -4 -4 -4 -3 -3 -2 -1 -1 -3 -4 -5 -6 -4 -4 -4 -2 0 3 3 3 -3 -2 -4 -7 -8 -8 -8 -6 -6 -6
-5 -5 -3 -3 -3 -1 -3 -0 2 -6 -4 -3 -3 -4 -3 -4 -4 -3 -3 -2 -3 -4 -3 -3 -2 -3 -5 -4 -3 -3 -3 -2 -0 -2 -3 -3 -1 -3 -8 -9 -9 -7 -5 -5 -4
-5 -5 -4 -3 -2 -1 -0 1 -3 -5 -4 -3 -2 -1 -1 -3 -3 -3 -3 -3 -4 -4 -3 -3 -3 -6 -5 -6 -5 -2 -2 -4 -3 -4 -3 -4 -6 -7 -9 -9 -6 -6 -5 -5 -4
-2 2 -0 -4 -2 -2 1 -0 -4 -6 -3 -3 -2 -3 -4 -2 -2 -4 -6 -5 -3 -5 -5 -5 -3 -4 -4 -6 -5 -5 -5 -2 -2 1 0 -3 -4 -4 -6 -7 -7 -6 -5 -5 -5
1 2 2 -1 -1 0 1 -1 -4 -6 -3 -3 -4 -5 -5 -5 -4 -5 -7 -5 -5 -4 -5 -4 -4 -3 -4 -3 -3 -3 -3 -3 -3 -2 -0 0 -2 -7 -7 -6 -6 -6 -5 -5 -4
4 2 1 -1 2 -0 1 -3 -4 -5 -5 -3 -3 -2 -3 -5 -4 -5 -5 -3 -5 -4 -3 -4 -2 -1 -4 -6 -7 -6 -5 -4 -1 -2 -3 -2 -3 -8 -7 -7 -7 -5 -5 -5 -4
2 1 -0 1 2 1 -0 -2 -2 -2 -2 -2 -1 -3 -3 -4 -3 -3 -3 -3 -4 -4 -3 -4 -2 -1 -2 -3 -6 -5 -5 -5 -5 -4 -2 -1 -2 -7 -6 -5 -5 -5 -4 -3 -3
1 4 4 3 2 3 1 -1 -1 -2 -1 -3 -3 -2 -2 -2 -3 -3 -2 -1 -3 -3 -4 -4 -1 -0 0 -1 -2 -1 -1 -2 -2 0 -0 -1 -2 -4 -4 -4 -4 -4 -3 -2 -2
3 3 3 5 3 3 1 -1 -0 2 -0 -2 -1 -1 -1 -1 -2 -2 -2 0 -1 -2 -3 -2 1 -1 -1 -1 -1 -0 0 -1 -0 -1 0 -1 -1 -3 -4 -4 -3 -2 -2 -1 -1
6 4 0 2 2 3 2 1 1 -1 -0 0 1 -0 -1 -0 -1 -1 -1 -1 -1 -1 -1 -1 2 1 2 0 -1 -0 -1 -2 -2 -2 -2 -2 -2 -5 -4 -3 -2 -1 -1 -1 -1
3 5 3 1 2 2 2 1 -0 -1 -1 -1 -0 -0 0 -0 -0 0 -0 -0 -0 0 1 1 2 3 4 0 1 2 -1 -2 -2 -2 -3 -1 -3 -2 -1 -1 -1 -1 -1 -1 -2
Wind_Speed
9 8 8 7 6 6 9 7 4 4 4 1 2 1 1 1 4 3 1 2 2 3 3 2 3 3 3 5 3 3 2 5 10 7 7 7 1 6 5 8 7 8 10 6 13
10 9 9 9 7 8 10 7 5 5 4 2 1 1 2 3 4 6 4 1 4 5 4 5 10 7 6 7 3 3 3 7 11 9 7 14 14 15 8 12 13 17 16 17 17
10 10 10 9 8 10 10 7 5 4 4 3 3 1 2 3 6 7 6 3 6 7 5 6 8 8 10 14 7 5 7 9 17 14 8 11 17 18 15 13 23 21 25 28 27
11 11 10 9 9 11 9 7 5 4 4 4 4 3 4 5 3 3 2 6 5 7 5 6 8 11 11 6 11 2 15 17 8 11 5 8 14 17 22 33 22 25 27 27 32
10 10 9 9 11 10 8 6 5 4 5 5 5 4 5 8 7 5 4 5 7 8 4 5 9 12 6 10 6 10 16 16 11 14 17 17 20 15 28 29 26 24 24 22 24
9 9 9 10 11 9 7 5 5 5 4 6 6 6 7 12 8 8 6 7 5 5 5 4 6 9 8 10 8 11 15 20 18 21 17 12 15 12 21 16 18 19 25 27 27
7 7 9 11 10 8 6 6 5 6 6 7 7 7 9 13 10 11 11 9 8 6 5 8 4 4 10 8 9 9 9 11 16 17 5 3 7 10 26 22 25 21 21 23 30
8 9 10 10 9 7 7 7 7 7 8 9 8 7 8 11 13 14 10 8 8 6 6 8 5 5 4 8 6 5 6 5 1 7 2 4 8 7 19 21 19 19 19 21 26
8 9 9 9 8 8 9 7 8 9 10 9 8 7 11 9 8 7 9 8 7 6 5 6 3 6 4 4 6 9 6 8 5 11 2 6 12 7 18 28 30 28 24 26 26
8 8 9 8 7 8 9 9 9 9 9 9 10 6 16 3 7 8 7 8 5 5 6 3 5 5 5 5 4 8 8 8 9 3 5 9 18 18 24 24 21 15 13 13 16
8 8 7 7 7 8 7 8 6 6 13 11 1 9 2 4 5 4 5 2 5 7 7 11 2 6 8 7 6 6 8 10 10 3 4 8 17 19 24 15 13 12 14 19 21
8 7 7 6 7 8 8 6 8 3 6 15 18 14 7 6 3 7 8 4 9 6 12 5 8 2 4 4 3 6 10 10 9 1 4 8 20 19 10 6 13 19 20 17 20
9 8 7 6 8 8 8 11 11 9 5 7 14 8 12 9 7 5 6 3 8 8 9 7 8 5 2 5 7 6 8 6 6 9 8 6 7 2 7 18 19 18 16 15 16
9 7 7 5 4 3 6 8 5 2 3 6 5 4 7 6 4 7 6 3 3 5 5 6 6 2 3 6 6 7 4 6 7 7 4 6 5 7 8 8 8 18 16 17 16
9 9 7 8 2 3 5 5 3 2 3 4 5 5 5 6 5 3 6 3 7 7 2 3 3 3 5 2 2 3 3 6 4 5 6 3 1 7 5 6 7 11 14 17 17
9 9 8 6 7 8 6 5 2 3 5 3 5 6 6 9 5 3 3 5 4 5 6 10 4 1 2 2 2 7 7 9 6 3 2 4 3 5 2 2 6 11 9 19 18
10 11 10 10 7 7 6 4 4 5 1 5 5 4 8 6 6 6 7 6 5 3 3 6 8 4 1 3 3 5 5 3 1 1 3 6 1 9 8 6 9 6 16 18 17
10 11 12 13 11 8 7 4 5 3 4 1 3 3 4 6 4 6 4 4 9 1 4 4 3 7 7 1 2 3 2 2 4 3 5 6 5 5 6 3 14 15 17 15 16
8 10 12 14 11 10 6 5 3 4 3 4 3 4 6 4 1 6 8 6 4 6 3 4 2 3 2 2 1 2 1 2 3 8 4 5 6 7 1 9 11 8 11 10 11
7 5 8 12 12 12 5 6 2 4 2 1 4 6 3 8 4 6 4 4 4 4 2 2 5 2 2 2 3 1 3 2 1 3 4 5 7 3 5 5 8 4 8 7 8
9 5 10 13 14 7 6 6 3 6 4 3 4 2 4 2 5 5 1 2 3 3 3 5 3 2 3 6 6 2 2 4 1 2 3 5 4 1 15 8 7 11 20 15 9
5 3 5 17 8 7 6 3 1 3 6 3 1 3 5 2 3 5 3 5 5 6 1 1 2 4 8 4 7 3 3 3 3 5 4 4 11 11 6 7 11 19 14 13 14
3 3 6 20 5 7 3 1 2 3 5 5 5 4 4 3 2 6 3 5 3 2 1 2 3 4 5 3 3 2 4 5 5 2 9 5 7 10 21 15 16 15 16 15 18
3 3 4 15 11 2 7 10 7 8 5 8 1 2 4 4 5 3 3 2 4 1 1 2 2 6 7 10 8 8 9 7 5 6 12 15 21 14 15 11 10 13 16 21 22
7 4 5 3 7 8 6 2 9 6 6 9 4 8 7 5 7 8 8 5 5 5 2 1 5 7 9 11 10 12 17 14 15 17 11 24 19 17 14 4 8 14 17 24 23
6 5 5 3 2 13 10 5 9 8 7 5 7 8 9 8 7 3 2 4 4 4 5 3 4 5 7 13 14 16 18 15 16 15 16 17 18 11 6 8 12 14 19 25 21
14 10 5 7 6 4 6 11 8 9 7 5 3 7 6 1 8 6 3 7 5 2 7 7 4 4 4 4 13 9 13 8 7 8 6 6 7 7 7 9 14 17 26 18 22
Wind_Direction
231 228 234 226 213 190 178 180 186 192 188 153 92 158 5 215 192 173 345 225 315 2 337 336 334 305 318 256 288 272 262 264 268 313 343 348 297 292 226 246 258 223 240 246 201
238 234 237 230 212 186 177 184 188 201 197 154 221 196 322 244 228 233 246 290 1 4 25 295 289 247 262 229 209 254 247 270 304 334 324 314 315 299 261 239 238 237 229 234 222
239 240 239 231 208 181 181 187 205 205 210 208 235 261 319 291 252 226 208 313 341 349 348 310 290 280 268 273 255 234 236 272 303 318 325 302 295 284 266 259 254 256 232 230 234
240 235 230 222 199 181 188 191 211 215 230 232 241 262 288 279 312 180 253 310 331 342 347 312 290 266 265 270 270 252 263 277 284 286 289 279 297 288 269 260 261 259 271 233 225
238 235 218 206 187 187 197 203 218 225 242 241 247 263 277 269 256 235 288 301 322 336 325 306 296 287 268 285 315 265 263 271 287 284 264 266 267 270 271 268 266 263 260 247 237
234 225 201 187 187 198 206 220 235 242 251 254 257 269 275 269 261 283 290 297 294 302 286 302 300 308 297 273 283 315 307 287 281 274 278 275 269 281 271 269 275 256 254 245 241
222 211 192 182 193 209 220 238 242 254 267 269 266 279 268 256 260 278 286 279 273 272 265 269 274 275 317 285 337 284 291 283 257 244 241 7 271 231 272 273 258 256 250 250 242
213 202 194 192 201 223 236 242 259 265 269 273 270 276 259 265 267 272 272 283 284 280 268 272 275 276 251 303 296 224 245 293 100 124 168 113 278 294 320 341 295 282 284 253 246
211 200 205 206 211 236 251 256 267 269 271 268 266 273 271 250 253 234 222 235 248 290 288 285 274 254 205 240 282 220 268 312 3 187 177 187 286 259 291 297 282 277 270 258 254
209 212 217 216 231 244 254 264 272 271 265 257 250 266 239 229 212 232 235 215 230 262 281 242 226 226 223 233 270 337 330 317 307 336 212 259 268 291 310 305 306 338 349 325 293
206 218 220 222 231 249 252 276 284 253 214 206 237 220 248 235 249 200 230 272 240 247 259 223 261 266 309 22 8 330 299 286 291 43 330 276 292 294 300 308 23 21 27 22 6
207 211 220 226 234 248 248 235 280 282 292 266 244 245 223 201 232 224 224 217 199 248 262 214 240 341 19 7 335 307 287 283 284 152 319 288 295 291 277 104 65 55 52 41 30
207 215 220 229 240 240 239 257 266 287 269 254 225 240 233 239 239 242 196 230 251 268 270 244 262 147 318 311 288 273 274 321 319 330 281 315 285 10 106 108 97 83 62 41 35
219 219 220 226 266 209 229 264 272 273 280 184 206 202 205 188 229 209 195 230 229 279 331 277 78 24 293 274 286 278 29 324 321 341 299 37 288 313 130 151 122 92 59 35 35
220 224 218 200 160 248 227 253 247 221 277 115 139 169 168 189 141 176 210 193 263 273 145 264 212 239 276 323 30 287 358 282 305 297 306 2 89 273 157 96 85 96 59 38 24
230 229 221 229 236 240 241 223 207 232 242 139 137 184 173 206 188 142 172 212 274 286 243 251 139 226 315 10 233 323 289 246 201 224 265 179 178 280 239 128 90 60 44 36 28
232 225 215 205 195 232 203 166 222 244 309 151 172 186 222 162 192 191 181 190 217 259 177 198 196 114 193 256 149 240 287 305 217 223 247 101 274 242 298 58 100 96 47 49 24
228 222 218 218 215 214 177 223 248 292 96 47 157 179 226 152 217 187 245 245 220 157 291 272 239 182 164 326 327 297 323 286 298 327 290 141 239 268 171 103 114 63 60 59 42
215 212 219 216 211 193 179 223 249 49 58 170 158 228 185 179 228 195 213 265 81 192 266 339 184 89 28 48 145 111 221 356 317 254 244 237 250 317 339 128 95 89 77 68 51
172 216 224 212 199 189 228 247 287 67 51 324 244 193 263 158 184 197 244 63 111 10 23 5 295 32 134 222 232 206 333 349 230 281 290 307 326 266 8 331 359 39 72 94 64
183 209 206 210 188 193 226 221 281 135 192 245 291 283 259 316 206 299 269 10 66 125 298 340 235 156 144 202 188 145 208 224 299 275 268 302 244 19 350 4 2 12 9 12 36
185 233 207 176 185 211 226 223 136 192 213 264 285 302 301 242 250 249 281 71 94 158 206 39 322 290 268 62 60 71 265 273 192 273 279 302 282 248 170 24 349 353 11 8 8
224 241 197 179 209 222 236 311 252 218 207 192 224 237 37 280 259 234 124 119 122 189 321 148 244 303 311 99 19 203 194 218 258 319 254 271 261 337 333 349 6 19 14 359 346
203 216 172 201 244 287 214 223 217 225 272 226 227 105 194 239 248 263 138 148 148 147 126 53 253 230 255 283 320 292 292 268 273 270 281 252 282 295 320 326 17 5 357 348 337
210 234 185 192 235 230 283 293 224 186 224 196 213 210 198 245 221 224 226 139 168 178 186 249 249 256 274 297 295 289 281 277 266 263 253 279 285 300 303 29 2 345 340 331 320
208 207 198 274 126 196 214 229 234 233 161 211 237 207 222 245 249 350 194 164 208 182 198 158 272 305 289 280 272 275 273 264 261 268 270 275 280 276 62 23 352 335 326 314 311
225 230 211 194 184 204 212 222 239 225 222 249 273 233 210 304 60 57 9 319 299 197 197 171 223 304 257 342 320 287 272 260 235 229 229 274 292 41 7 0 342 328 310 324 337
Height
1533 1533 1534 1535 1534 1534 1536 1538 1539 1540 1541 1541 1541 1542 1540 1540 1540 1540 1540 1541 1540 1538 1538 1538 1539 1539 1539 1539 1539 1538 1542 1544 1534 1527 1523 1520 1521 1522 1522 1523 1523 1523 1522 1521 1523
1532 1533 1534 1535 1534 1534 1536 1538 1538 1540 1541 1540 1542 1542 1540 1540 1541 1540 1541 1540 1540 1538 1537 1539 1539 1538 1538 1537 1538 1538 1539 1533 1524 1522 1522 1521 1521 1521 1521 1519 1519 1520 1519 1519 1521
1531 1532 1533 1534 1533 1534 1536 1537 1538 1539 1540 1540 1542 1541 1541 1540 1540 1539 1539 1540 1539 1538 1536 1537 1538 1538 1535 1534 1535 1534 1535 1527 1524 1523 1522 1521 1519 1519 1517 1514 1513 1514 1512 1512 1514
1531 1531 1532 1533 1533 1534 1536 1537 1538 1538 1539 1540 1541 1540 1540 1540 1540 1537 1538 1538 1537 1537 1536 1536 1536 1536 1534 1532 1529 1532 1527 1524 1521 1522 1521 1520 1518 1514 1512 1502 1508 1509 1509 1506 1505
1530 1530 1530 1532 1532 1534 1536 1537 1538 1538 1539 1539 1540 1539 1539 1539 1537 1536 1536 1537 1536 1535 1535 1534 1535 1533 1530 1529 1528 1528 1524 1521 1519 1519 1518 1517 1515 1515 1503 1502 1503 1504 1505 1504 1503
1528 1529 1529 1530 1532 1535 1535 1537 1537 1538 1538 1539 1539 1538 1538 1538 1534 1534 1535 1535 1534 1535 1535 1533 1533 1533 1531 1528 1528 1525 1524 1519 1516 1515 1514 1513 1510 1513 1496 1497 1496 1497 1498 1500 1498
1527 1527 1529 1528 1532 1535 1534 1537 1536 1537 1537 1538 1538 1537 1535 1535 1532 1533 1533 1533 1533 1533 1533 1532 1532 1533 1531 1527 1526 1525 1526 1517 1508 1507 1511 1510 1510 1503 1491 1492 1492 1493 1492 1494 1494
1526 1528 1528 1529 1532 1534 1535 1535 1536 1536 1536 1537 1537 1536 1533 1530 1529 1530 1530 1532 1531 1531 1531 1530 1530 1530 1530 1527 1523 1524 1522 1522 1505 1505 1509 1511 1505 1492 1491 1490 1490 1488 1488 1487 1487
1525 1526 1527 1528 1530 1533 1534 1533 1534 1534 1534 1535 1536 1535 1531 1528 1527 1528 1528 1532 1531 1530 1529 1528 1529 1528 1527 1528 1527 1514 1527 1517 1509 1505 1507 1511 1502 1489 1490 1489 1482 1480 1479 1479 1480
1523 1525 1527 1528 1529 1532 1532 1532 1532 1531 1532 1533 1532 1537 1527 1526 1525 1526 1527 1529 1530 1530 1529 1528 1528 1526 1524 1526 1537 1526 1525 1520 1520 1507 1507 1508 1498 1483 1485 1484 1478 1476 1475 1474 1474
1523 1525 1525 1527 1529 1530 1532 1532 1532 1530 1529 1525 1527 1525 1525 1524 1524 1525 1527 1527 1528 1529 1528 1525 1528 1530 1520 1517 1516 1519 1524 1523 1513 1508 1508 1505 1496 1486 1480 1480 1478 1477 1476 1475 1473
1522 1524 1525 1527 1528 1529 1529 1530 1528 1529 1525 1521 1522 1523 1524 1523 1524 1524 1525 1527 1525 1527 1522 1525 1528 1519 1516 1516 1518 1520 1525 1522 1509 1505 1507 1503 1494 1479 1474 1478 1479 1479 1479 1478 1476
1522 1523 1524 1526 1527 1527 1527 1529 1527 1525 1523 1518 1519 1518 1521 1523 1523 1522 1523 1523 1523 1524 1521 1523 1517 1515 1516 1517 1518 1517 1520 1517 1518 1508 1502 1501 1494 1475 1473 1476 1478 1480 1481 1480 1478
1520 1522 1524 1524 1527 1526 1528 1527 1525 1526 1526 1516 1517 1517 1519 1520 1520 1519 1520 1523 1521 1521 1518 1517 1513 1515 1515 1516 1514 1522 1513 1513 1515 1521 1524 1506 1529 1489 1476 1478 1478 1479 1481 1481 1480
1519 1521 1522 1523 1523 1525 1524 1524 1526 1528 1541 1515 1516 1516 1518 1519 1518 1518 1518 1520 1521 1518 1520 1516 1513 1514 1516 1513 1514 1515 1514 1516 1515 1522 1522 1506 1522 1494 1475 1479 1479 1479 1480 1481 1481
1516 1518 1520 1521 1522 1523 1523 1525 1527 1533 1532 1514 1514 1515 1516 1515 1515 1516 1517 1520 1519 1517 1513 1511 1512 1514 1514 1513 1514 1514 1513 1509 1514 1518 1530 1504 1512 1501 1484 1478 1479 1479 1480 1480 1481
1514 1517 1518 1520 1521 1522 1523 1526 1531 1531 1506 1514 1511 1512 1510 1511 1512 1514 1516 1518 1519 1521 1518 1507 1510 1513 1514 1515 1515 1516 1517 1524 1532 1533 1522 1505 1513 1496 1476 1476 1478 1479 1481 1481 1482
1513 1514 1515 1518 1519 1521 1522 1527 1533 1504 1502 1507 1507 1508 1510 1507 1510 1511 1512 1515 1507 1510 1518 1516 1519 1513 1512 1512 1515 1514 1516 1529 1533 1529 1521 1507 1514 1491 1470 1472 1477 1480 1481 1481 1481
1510 1511 1512 1515 1518 1519 1523 1527 1508 1502 1502 1505 1507 1509 1509 1508 1511 1510 1510 1508 1506 1509 1517 1514 1512 1511 1511 1512 1514 1515 1521 1515 1522 1516 1524 1502 1486 1475 1471 1473 1476 1477 1476 1477 1478
1509 1510 1511 1512 1516 1519 1522 1516 1504 1501 1504 1505 1508 1503 1503 1506 1512 1508 1502 1502 1508 1510 1510 1510 1521 1509 1514 1514 1513 1515 1518 1524 1524 1532 1522 1502 1500 1492 1481 1479 1475 1474 1474 1475 1475
1509 1509 1508 1510 1514 1518 1516 1509 1501 1501 1505 1506 1504 1503 1503 1503 1503 1506 1501 1508 1506 1511 1512 1511 1513 1514 1512 1514 1508 1522 1520 1519 1518 1521 1529 1528 1506 1472 1477 1476 1474 1475 1476 1475 1474
1507 1507 1504 1507 1514 1509 1508 1501 1502 1502 1505 1506 1505 1505 1504 1500 1505 1505 1503 1505 1508 1510 1511 1512 1514 1518 1508 1503 1502 1505 1508 1511 1524 1520 1515 1518 1493 1470 1474 1475 1477 1477 1477 1476 1475
1504 1503 1503 1505 1507 1504 1501 1501 1502 1502 1503 1503 1503 1501 1502 1503 1509 1503 1501 1511 1511 1511 1511 1511 1516 1523 1511 1510 1507 1507 1505 1507 1509 1512 1516 1527 1501 1469 1470 1475 1477 1477 1476 1475 1473
1503 1503 1503 1504 1500 1499 1498 1498 1501 1501 1500 1500 1500 1500 1503 1505 1502 1504 1505 1511 1511 1512 1513 1512 1514 1518 1523 1512 1507 1510 1504 1503 1508 1515 1505 1499 1486 1480 1478 1477 1475 1476 1475 1474 1473
1498 1496 1494 1498 1496 1497 1496 1493 1495 1499 1499 1499 1499 1500 1501 1505 1502 1503 1503 1511 1512 1512 1513 1513 1517 1512 1508 1505 1504 1503 1500 1501 1504 1499 1508 1482 1489 1482 1477 1476 1476 1476 1475 1473 1471
1493 1493 1493 1492 1491 1493 1496 1494 1494 1492 1495 1497 1498 1495 1498 1501 1499 1500 1499 1502 1504 1512 1511 1511 1516 1510 1513 1504 1501 1499 1490 1489 1487 1487 1487 1484 1483 1475 1474 1475 1475 1475 1474 1471 1468
1488 1489 1489 1485 1487 1490 1488 1489 1488 1490 1490 1491 1493 1496 1497 1497 1499 1500 1502 1502 1503 1505 1509 1512 1514 1513 1513 1500 1502 1503 1482 1481 1479 1479 1479 1486 1479 1475 1475 1474 1474 1473 1471 1469 1465